Location: Bernay
(48.6766°N, 2.9386°E)
Time: 20:57:57
(UTC+00:00)

Cosmos 2341 Rocket - Pass Details

Date: 12 January 2026
Orbit: 967 x 1004 km, 82.9° (Epoch: 14 February)

Event Time Altitude Azimuth Distance (km) Brightness Sun altitude
Rises 17:54:06 0° 349° (N) 3,730 7.0 -15.6°
Reaches altitude 10° 17:56:39 10° 349° (N) 2,772 6.3 -16.0°
Maximum altitude 18:03:00 80° 264° (W) 1,009 4.1 -17.0°
Drops below altitude 10° 18:09:16 10° 178° (S) 2,727 6.5 -18.0°
Sets 18:11:45 0° 177° (S) 3,666 7.1 -18.4°
